When you browse on this site, cookies collect data to enhance your experience and personalize the content and advertising you see.
Visit our Privacy Policy to learn more. By continuing to use the site, you agree to this use of cookies and data.
  • In Portugal
  • List of Countries
  • For 7 days
  • Water Temperature
  • Weather Map
  • Weather Widgets
  • user-avatar
    Login

    Hourly Weather Inverclyde

    Today, 22 September, Sunday

    Time Temperature Precipitation Wind Pressure Humidity
    00:00 +12°C° 0 mm 1 mps 753 mmHg 89%
    01:00 +12°C° 0 mm 1 mps 752 mmHg 89%
    02:00 +11°C° 0 mm 1 mps 752 mmHg 89%
    03:00 +11°C° 0 mm 1 mps 751 mmHg 89%
    04:00 +11°C° 0 mm 1 mps 751 mmHg 88%
    05:00 +11°C° 0 mm 1 mps 751 mmHg 87%
    06:00 +12°C° 0 mm 1 mps 751 mmHg 84%
    07:00 +13°C° 0 mm 1 mps 751 mmHg 81%
    08:00 +15°C° 0 mm 1 mps 751 mmHg 79%
    09:00 +16°C° 0 mm 1 mps 750 mmHg 76%
    10:00 +18°C° 0 mm 1 mps 750 mmHg 73%
    11:00 +19°C° 0 mm 2 mps 750 mmHg 70%
    12:00 +20°C° 0 mm 2 mps 750 mmHg 67%
    13:00 +20°C° 0 mm 2 mps 750 mmHg 69%
    14:00 +20°C° 0 mm 2 mps 749 mmHg 70%
    15:00 +21°C° 0 mm 2 mps 749 mmHg 72%
    16:00 +20°C° 0 mm 2 mps 749 mmHg 77%
    17:00 +19°C° 0 mm 1 mps 749 mmHg 83%
    18:00 +18°C° 0 mm 1 mps 749 mmHg 89%
    19:00 +18°C° 0.1 mm 1 mps 750 mmHg 91%
    20:00 +18°C° 0.1 mm 1 mps 750 mmHg 93%
    21:00 +16°C° 0.1 mm 1 mps 750 mmHg 95%
    22:00 +16°C° 0 mm 1 mps 750 mmHg 95%
    23:00 +16°C° 0 mm 1 mps 750 mmHg 96%

    Tomorrow, 23 September, Monday

    Time Temperature Precipitation Wind Pressure Humidity
    00:00 +15°C° 0 mm 1 mps 750 mmHg 97%
    01:00 +15°C° 0.4 mm 1 mps 750 mmHg 97%
    02:00 +15°C° 0.4 mm 1 mps 749 mmHg 97%
    03:00 +15°C° 0.4 mm 1 mps 749 mmHg 97%
    04:00 +15°C° 0.3 mm 1 mps 749 mmHg 97%
    05:00 +15°C° 0.3 mm 1 mps 749 mmHg 97%
    06:00 +15°C° 0.3 mm 1 mps 749 mmHg 97%
    07:00 +15°C° 0 mm 1 mps 749 mmHg 95%
    08:00 +16°C° 0 mm 1 mps 749 mmHg 92%
    09:00 +18°C° 0 mm 1 mps 749 mmHg 90%
    10:00 +19°C° 0.2 mm 1 mps 749 mmHg 86%
    11:00 +19°C° 0.2 mm 2 mps 750 mmHg 82%
    12:00 +19°C° 0.2 mm 2 mps 750 mmHg 78%
    13:00 +20°C° 0.3 mm 2 mps 750 mmHg 76%
    14:00 +20°C° 0.3 mm 2 mps 750 mmHg 74%
    15:00 +20°C° 0.3 mm 2 mps 750 mmHg 73%
    16:00 +19°C° 0.1 mm 2 mps 750 mmHg 77%
    17:00 +17°C° 0.1 mm 2 mps 749 mmHg 82%
    18:00 +16°C° 0.1 mm 2 mps 749 mmHg 87%
    19:00 +15°C° 0 mm 2 mps 749 mmHg 88%
    20:00 +14°C° 0 mm 2 mps 749 mmHg 90%
    21:00 +13°C° 0 mm 2 mps 749 mmHg 92%
    22:00 +13°C° 0 mm 2 mps 749 mmHg 90%
    23:00 +13°C° 0 mm 2 mps 749 mmHg 88%

    Day after tomorrow, 24 September, Tuesday

    Time Temperature Precipitation Wind Pressure Humidity
    00:00 +14°C° 0 mm 2 mps 749 mmHg 86%
    01:00 +14°C° 0 mm 2 mps 748 mmHg 87%
    02:00 +14°C° 0 mm 2 mps 748 mmHg 88%
    03:00 +14°C° 0 mm 1 mps 747 mmHg 89%
    04:00 +14°C° 0 mm 1 mps 747 mmHg 90%
    05:00 +13°C° 0 mm 1 mps 747 mmHg 91%
    06:00 +13°C° 0 mm 1 mps 746 mmHg 92%
    07:00 +14°C° 0 mm 1 mps 746 mmHg 90%
    08:00 +15°C° 0 mm 1 mps 746 mmHg 88%
    09:00 +16°C° 0 mm 1 mps 746 mmHg 86%
    10:00 +16°C° 0 mm 1 mps 746 mmHg 84%
    11:00 +18°C° 0 mm 1 mps 746 mmHg 82%
    12:00 +19°C° 0 mm 1 mps 746 mmHg 80%
    13:00 +18°C° 0.2 mm 2 mps 746 mmHg 81%
    14:00 +18°C° 0.2 mm 2 mps 745 mmHg 81%
    15:00 +18°C° 0.2 mm 2 mps 745 mmHg 82%
    16:00 +17°C° 0.1 mm 2 mps 745 mmHg 86%
    17:00 +16°C° 0.1 mm 2 mps 745 mmHg 91%
    18:00 +15°C° 0.1 mm 2 mps 745 mmHg 95%
    19:00 +15°C° 0 mm 2 mps 745 mmHg 96%
    20:00 +15°C° 0 mm 2 mps 745 mmHg 96%
    21:00 +15°C° 0 mm 2 mps 745 mmHg 97%
    22:00 +15°C° 0 mm 2 mps 745 mmHg 97%
    23:00 +15°C° 0 mm 2 mps 745 mmHg 98%

    25 September, Wednesday

    Time Temperature Precipitation Wind Pressure Humidity
    00:00 +15°C° 0 mm 2 mps 745 mmHg 98%
    01:00 +15°C° 0 mm 2 mps 745 mmHg 98%
    02:00 +15°C° 0 mm 2 mps 745 mmHg 98%
    03:00 +15°C° 0 mm 2 mps 745 mmHg 98%
    04:00 +15°C° 0 mm 2 mps 745 mmHg 98%
    05:00 +15°C° 0 mm 2 mps 745 mmHg 98%
    06:00 +15°C° 0 mm 2 mps 745 mmHg 98%
    07:00 +15°C° 0 mm 2 mps 745 mmHg 97%
    08:00 +15°C° 0 mm 2 mps 745 mmHg 95%
    09:00 +16°C° 0 mm 2 mps 746 mmHg 93%
    10:00 +16°C° 0.1 mm 2 mps 746 mmHg 89%
    11:00 +17°C° 0.1 mm 2 mps 746 mmHg 84%
    12:00 +18°C° 0.1 mm 2 mps 746 mmHg 79%
    13:00 +18°C° 0.1 mm 3 mps 746 mmHg 77%
    14:00 +18°C° 0.1 mm 3 mps 746 mmHg 74%
    15:00 +19°C° 0.1 mm 3 mps 746 mmHg 72%
    16:00 +17°C° 0.1 mm 3 mps 746 mmHg 76%
    17:00 +16°C° 0.1 mm 3 mps 746 mmHg 81%
    18:00 +14°C° 0.1 mm 3 mps 746 mmHg 86%
    19:00 +14°C° 0 mm 3 mps 745 mmHg 88%
    20:00 +13°C° 0 mm 3 mps 745 mmHg 89%
    21:00 +13°C° 0 mm 3 mps 745 mmHg 90%
    22:00 +13°C° 0 mm 3 mps 744 mmHg 90%
    23:00 +13°C° 0 mm 3 mps 744 mmHg 89%

    26 September, Thursday

    Time Temperature Precipitation Wind Pressure Humidity
    00:00 +13°C° 0 mm 3 mps 744 mmHg 89%
    01:00 +13°C° 0.9 mm 3 mps 743 mmHg 91%
    02:00 +13°C° 0.9 mm 3 mps 743 mmHg 93%
    03:00 +13°C° 0.9 mm 3 mps 743 mmHg 95%
    04:00 +13°C° 0.6 mm 3 mps 742 mmHg 95%
    05:00 +14°C° 0.6 mm 2 mps 742 mmHg 95%
    06:00 +14°C° 0.6 mm 2 mps 742 mmHg 95%
    07:00 +14°C° 0.9 mm 2 mps 742 mmHg 95%
    08:00 +14°C° 0.9 mm 2 mps 742 mmHg 95%
    09:00 +14°C° 0.9 mm 2 mps 742 mmHg 95%
    10:00 +15°C° 0.1 mm 2 mps 742 mmHg 87%
    11:00 +16°C° 0.1 mm 2 mps 742 mmHg 80%
    12:00 +17°C° 0.1 mm 3 mps 742 mmHg 73%
    13:00 +17°C° 0.2 mm 3 mps 743 mmHg 74%
    14:00 +16°C° 0.2 mm 3 mps 743 mmHg 75%
    15:00 +16°C° 0.2 mm 2 mps 743 mmHg 77%
    16:00 +15°C° 0.1 mm 2 mps 743 mmHg 80%
    17:00 +14°C° 0.1 mm 2 mps 743 mmHg 84%
    18:00 +13°C° 0.1 mm 1 mps 743 mmHg 88%
    19:00 +13°C° 0 mm 1 mps 743 mmHg 90%
    20:00 +12°C° 0 mm 2 mps 744 mmHg 91%
    21:00 +12°C° 0 mm 2 mps 744 mmHg 93%
    22:00 +12°C° 0 mm 2 mps 744 mmHg 93%
    23:00 +12°C° 0 mm 2 mps 744 mmHg 93%

    27 September, Friday

    Time Temperature Precipitation Wind Pressure Humidity
    00:00 +12°C° 0 mm 1 mps 744 mmHg 94%
    01:00 +11°C° 0 mm 1 mps 744 mmHg 94%
    02:00 +11°C° 0 mm 1 mps 744 mmHg 94%
    03:00 +11°C° 0 mm 1 mps 744 mmHg 94%
    04:00 +11°C° 0 mm 1 mps 744 mmHg 94%
    05:00 +10°C° 0 mm 1 mps 743 mmHg 94%
    06:00 +10°C° 0 mm 1 mps 743 mmHg 95%
    07:00 +11°C° 0 mm 1 mps 743 mmHg 91%
    08:00 +12°C° 0 mm 1 mps 743 mmHg 88%
    09:00 +13°C° 0 mm 1 mps 743 mmHg 84%
    10:00 +14°C° 0 mm 2 mps 743 mmHg 79%
    11:00 +15°C° 0 mm 2 mps 743 mmHg 74%
    12:00 +16°C° 0 mm 3 mps 743 mmHg 69%
    13:00 +16°C° 0.1 mm 3 mps 743 mmHg 69%
    14:00 +16°C° 0.1 mm 3 mps 743 mmHg 69%
    15:00 +16°C° 0.1 mm 3 mps 742 mmHg 68%
    16:00 +14°C° 0 mm 3 mps 742 mmHg 74%
    17:00 +14°C° 0 mm 2 mps 742 mmHg 79%
    18:00 +13°C° 0 mm 2 mps 742 mmHg 84%
    19:00 +13°C° 0 mm 2 mps 742 mmHg 85%
    20:00 +12°C° 0 mm 2 mps 742 mmHg 86%
    21:00 +12°C° 0 mm 2 mps 742 mmHg 87%
    22:00 +12°C° 0.1 mm 2 mps 742 mmHg 88%
    23:00 +12°C° 0.1 mm 1 mps 742 mmHg 88%
    Show more